Weather in Borisoglebovka

Russia / Saratov Oblast     51°01′05″N   47°45′39″E
temp.,
°C
wind,
m/s
gust,
m/s
humid.,
%
clouds,
%
prec.,
mm/h
press.,
hPa
HPBL,
m
16 june, wed
wed1601:00+19ssw467524 0.0 100683
04:00+17sw4108293 0.0 1007176
07:00+20sw612790 0.0 1008436
10:00+24sw7106470 0.0 10091272
13:00+26sw8105496 0.3 10101979
16:00+26wsw795691 0.3 10101305
19:00+25wsw69620 0.0 1009727
22:00+21w410830 0.0 1011217
17 june, thu
thu1701:00+19w47920 0.0 1011132
04:00+19nw36930 0.0 1012109
07:00+21n58830 0.0 1013310
10:00+24nne67680 0.0 1014827
13:00+26nne77555 0.0 10151250
16:00+25nne78450 0.0 10161249
19:00+22nne710530 0.0 1018785
22:00+18nne513630 0.0 1019340
18 june, fri
fri1801:00+15ne410690 0.0 1020190
04:00+15nne613740 0.0 1020323
07:00+16nne611720 0.0 1022386
10:00+20nne89520 0.0 10231086
13:00+21nne89410 0.0 10241501
16:00+21nne88420 0.0 10241625
19:00+20ne69530 0.0 10241068
22:00+15nne511680 0.0 1025239
19 june, sat
sat1901:00+13nne48770 0.0 1026132
04:00+13ne47804 0.0 1027128
07:00+16ne46734 0.0 1028233
10:00+21ene455374 0.0 10281106
13:00+24ene44414 0.0 10271521
16:00+25ene33370 0.0 10261530
19:00+24ne34480 0.0 1025263
22:00+19ne45623 0.0 102660
20 june, sun
sun2001:00+17ne33675 0.0 102625
04:00+16ne33680 0.0 102623
07:00+19ne23610 0.0 1026117
10:00+24ne23480 0.0 1026687
13:00+27ne22430 0.0 10251397
16:00+29nne23420 0.0 10231769
19:00+28ne23510 0.0 1023287
22:00+23nne33660 0.0 102336